Volver al catálogo

COSMOS 839 DEB

ActivoUNKNOWN
NORAD 13516·DEBRIS·🇷🇺 Russia

Lanzado Jul 8, 1976 desde Plesetsk Cosmodrome

Loading…

Próximos Pases (próximas 24 horas)

TLE

ActualizadoSource: Space-Track

Época: Sep 14, 2026, 14:13 UTC

1 13516U 76067BD  26257.59284148 -.00000035  00000-0  67110-4 0  9993
2 13516  65.6634 199.8431 0722660  66.3236 100.2425 12.32432959534558

Sigue COSMOS 839 DEB en tiempo real con AllMySat

Download on the App Store